Regional Weather Roundup
Issued by NWS Memphis, TN

Home | Current Version | Previous Version | Text Only | Print | Product List | Glossary On
Versions: 1 2 3 4 5 6 7 8 9 10 11 12 13 14 15 16 17 18 19 20 21 22 23 24 25 26 27 28 29 30 31 32 33 34 35 36 37 38 39 40 41 42 43 44 45 46 47 48 49 50
000
ASUS44 KMEG 251310
RWRMEG
MEMPHIS CWA HOURLY WEATHER ROUNDUP
NATIONAL WEATHER SERVICE MEMPHIS TN
800 AM CDT SUN JUN 25 2017

...WEST TENNESSEE...

CITY           SKY/WX    TMP DP  RH WIND       PRES   REMARKS
MEMPHIS INTL   CLOUDY    74  58  57 CALM      30.24R
NWS MEMPHIS      N/A     71 N/A N/A MISG        N/A
JACKSON        CLOUDY    69  59  70 CALM      30.23R
COVINGTON      SUNNY     70  61  73 CALM      30.23R
BOLIVAR        SUNNY     68  61  77 CALM      30.22R
LEXINGTON      SUNNY     68  61  77 CALM      30.23R
SELMER         SUNNY     68  59  73 CALM      30.22S
SAVANNAH       SUNNY     68  63  83 CALM      30.22R
UNION CITY     SUNNY     68  63  83 CALM      30.23R
PARIS          SUNNY     68  61  77 CALM      30.22R
HUNTINGDON     SUNNY     70  57  64 CALM      30.22S


...EASTERN ARKANSAS...

CITY           SKY/WX    TMP DP  RH WIND       PRES   REMARKS
JONESBORO      MOSUNNY   70  57  63 N3        30.24R
WEST MEMPHIS   SUNNY     71  66  84 NW3       30.23R
BATESVILLE     CLOUDY    66  57  72 W3        30.27R
WALNUT RIDGE   SUNNY     66  55  68 NW5       30.25R
BLYTHEVILLE    SUNNY     72  63  73 CALM      30.23R
SEARCY         SUNNY     70  60  70 N6        30.27R
STUTTGART      CLOUDY    72  55  56 N6        30.26R
PINE BLUFF     CLOUDY    70  65  84 N7        30.25R
MONTICELLO     MOSUNNY   73  65  75 NE6       30.23R


...NORTH MISSISSIPPI...

CITY           SKY/WX    TMP DP  RH WIND       PRES   REMARKS
TUPELO         CLOUDY    67  60  78 N6        30.21R
OXFORD         CLOUDY    64  57  77 CALM      30.25R
BATESVILLE     CLOUDY    70  61  72 CALM      30.24R
OLIVE BRANCH   MOSUNNY  N/A N/A N/A CALM      30.23R
TUNICA           N/A     70  61  73 N3        30.25R
CLARKSDALE       N/A     72  64  78 CALM      30.24R
CORINTH          N/A    N/A N/A N/A MISG        N/A
GREENWOOD      CLOUDY    71  64  78 CALM      30.21R
COLUMBUS       CLOUDY    69  65  86 N7        30.18S
STARKVILLE     CLOUDY    68  61  77 N5        30.21R
GOLDEN TRIANGL PTSUNNY   70  59  68 E5        30.15R


...SOUTHEAST MISSOURI...

CITY           SKY/WX    TMP DP  RH WIND       PRES   REMARKS
KENNETT        SUNNY     72  59  64 N8        30.22S
MALDEN         SUNNY     68  59  73 NW5       30.25S
WEST PLAINS    MOSUNNY   67  52  58 W3        30.29R
POPLAR BLUFF   SUNNY     65  57  75 CALM      30.24R
CAPE GIRARDEAU SUNNY     63  56  78 W6        30.23R


...NORTHWEST ALABAMA...

CITY           SKY/WX    TMP DP  RH WIND       PRES   REMARKS
MUSCLE SHOALS  CLOUDY    69  55  60 NE6       30.23R


...MIDDLE TENNESSEE...

CITY           SKY/WX    TMP DP  RH WIND       PRES   REMARKS
NASHVILLE      MOSUNNY   70  55  59 NW7       30.23R
CLARKSVILLE    SUNNY     66  58  75 CALM      30.22R
COLUMBIA       SUNNY     66  59  77 CALM      30.21R


...WESTERN KENTUCKY...

CITY           SKY/WX    TMP DP  RH WIND       PRES   REMARKS
PADUCAH        SUNNY     68  57  68 W3        30.22R
FORT CAMPBELL  SUNNY     66  57  73 NW3       30.22R


...CENTRAL ARKANSAS...

CITY           SKY/WX    TMP DP  RH WIND       PRES   REMARKS
LITTLE ROCK    PTSUNNY   72  61  68 N5        30.25R


SKY/WX REPORTED AS FAIR MEANS FEW OR NO CLOUDS BELOW
12 THOUSAND FEET.





USA.gov is the U.S. government's official web portal to all federal, state and local government web resources and services.